Location: Zeiss-Gro�planetarium Berlin
(52.5430°N, 13.4281°E)
Time: 01:47:49
(UTC+01:00)

ISS - Pass Details

Date: 27 September 2020
Orbit: 417 x 420 km, 51.6° (Epoch: 27 October)

Event Time Altitude Azimuth Distance (km) Brightness Sun altitude
Rises 21:03:00 0° 277° (W) 2,371 1.4 -20.2°
Reaches altitude 10° 21:05:06 10° 274° (W) 1,506 0.1 -20.5°
Enters shadow 21:08:06 57° 229° (SW) 503 -3.4 -20.9°
